Location: *
(2.5500°S, 65.9667°W)
Time: 15:41:18
(UTC+00:00)

H-2A R/B - Pass Details

Date: 05 June 2022
Orbit: 734 x 836 km, 98.2° (Epoch: 03 July)

Event Time Altitude Azimuth Distance (km) Brightness Sun altitude
Rises 22:31:38 0° 175° (S) 3,183 4.9 -3.1°
Reaches altitude 10° 22:33:55 10° 178° (S) 2,267 4.2 -3.6°
Maximum altitude 22:38:50 60° 258° (WSW) 864 2.6 -4.7°
Drops below altitude 10° 22:43:51 10° 338° (NNW) 2,313 5.2 -5.9°
Sets 22:46:13 0° 341° (NNW) 3,254 5.9 -6.5°
